Hamilton Island, Australia

7:59 AM AEST on July 25, 2017 (GMT +1000)
Hamilton Island

Weather History for YBHM - September, 2014

Change the Weather History Date:

Wednesday, September 3, 2014

  Actual Average Record
Temperature  
Mean Temperature 66 °F -  
Max Temperature 71 °F - - ()
Min Temperature 62 °F - - ()
Cooling Degree Days 2    
Growing Degree Days 16 (Base 50)    
Moisture  
Dew Point 52 °F    
Average Humidity 57    
Maximum Humidity 83    
Minimum Humidity 30    
Precipitation  
Precipitation 0.00 in - - ()
Sea Level Pressure  
Sea Level Pressure 29.99 in    
Wind  
Wind Speed 17 mph ()    
Max Wind Speed 29 mph    
Max Gust Speed -    
Visibility 6.2 miles    
Events      
T = Trace of Precipitation, MM = Missing Value Source: Averaged Metar Reports

Daily Weather History Graph

Daily Weather History Graph

Search for Another Location

Airport or City:

Trip Planner

Search our weather history database for the weather conditions in past years. The results will help you decide how hot, cold, wet, or windy it might be!

Date:

Astronomy

Sep. 03, 2014 Rise Set
Actual Time 6:11 AM AEST 5:55 PM AEST
Civil Twilight 5:49 AM AEST 6:18 PM AEST
Nautical Twilight 5:23 AM AEST 6:43 PM AEST
Astronomical Twilight 4:58 AM AEST 7:09 PM AEST
Moon 11:58 AM AEST (9/3) 12:28 AM AEST (9/3)
Length of Visible Light 12h 28m
Length of Day
11h 44m
First Quarter, 57% of the Moon is Illuminated
Sep 3
First Quarter
Sep 9
Full
Sep 16
Last Quarter
Sep 24
New
Oct 2
First Quarter

Hourly Weather History & Observations

Time (AEST) Temp. Dew Point Humidity Pressure Visibility Wind Dir Wind Speed Gust Speed Precip Events Conditions
12:00 AM 70 °F 62 °F 70% 29.97 in - NW 26.5 mph - -  
12:00 AM 69.8 °F 62.6 °F 78% 29.95 in 6.2 mi NW 26.5 mph - N/A   Unknown
12:30 AM 69.8 °F 64.4 °F 83% 29.95 in 6.2 mi NW 21.9 mph - N/A   Unknown
1:00 AM 69.8 °F 62.6 °F 78% 29.95 in 6.2 mi NW 20.7 mph - N/A   Unknown
1:30 AM 69.8 °F 62.6 °F 78% 29.95 in 6.2 mi NNW 19.6 mph - N/A   Unknown
2:00 AM 68.0 °F 62.6 °F 83% 29.95 in 6.2 mi NNW 18.4 mph - N/A   Unknown
2:30 AM 68.0 °F 62.6 °F 83% 29.95 in 6.2 mi NNW 12.7 mph - N/A   Unknown
3:00 AM 68 °F 63 °F 78% 29.97 in - NW 10.4 mph - -  
3:00 AM 68.0 °F 62.6 °F 83% 29.95 in 6.2 mi NW 10.4 mph - N/A   Unknown
3:30 AM 68.0 °F 60.8 °F 78% 29.95 in 6.2 mi WNW 5.8 mph - N/A   Unknown
4:00 AM 69.8 °F 57.2 °F 64% 29.95 in 6.2 mi SSW 6.9 mph - N/A   Unknown
4:27 AM 69.8 °F 46.4 °F 43% 29.98 in 6.2 mi South 18.4 mph - N/A   Unknown
4:30 AM 69.8 °F 48.2 °F 46% 29.98 in 6.2 mi South 18.4 mph - N/A   Unknown
5:00 AM 69.8 °F 44.6 °F 40% 29.98 in 6.2 mi South 20.7 mph - N/A   Unknown
5:30 AM 69.8 °F 42.8 °F 38% 29.98 in 6.2 mi South 23.0 mph - N/A   Unknown
6:00 AM 68 °F 44 °F 30% 30.00 in - South 21.9 mph - -  
6:00 AM 68.0 °F 42.8 °F 40% 30.01 in 6.2 mi South 21.9 mph - N/A   Unknown
6:30 AM 68.0 °F 44.6 °F 43% 30.01 in 6.2 mi South 21.9 mph - N/A   Unknown
7:00 AM 68.0 °F 42.8 °F 40% 30.01 in 6.2 mi South 20.7 mph - N/A   Unknown
7:30 AM 69.8 °F 42.8 °F 38% 30.04 in 6.2 mi South 20.7 mph - N/A   Unknown
8:00 AM 69.8 °F 44.6 °F 40% 30.04 in 6.2 mi SSE 23.0 mph - N/A   Unknown
8:30 AM 68.0 °F 44.6 °F 43% 30.04 in 6.2 mi SSE 28.8 mph - N/A   Unknown
9:00 AM 68 °F 47 °F 35% 30.05 in - SSE 26.5 mph - -  
9:00 AM 68.0 °F 46.4 °F 46% 30.04 in 6.2 mi SSE 26.5 mph - N/A   Unknown
9:30 AM 68.0 °F 48.2 °F 49% 30.06 in 6.2 mi SSE 25.3 mph - N/A   Unknown
10:00 AM 68.0 °F 46.4 °F 46% 30.06 in 6.2 mi SSE 24.2 mph - N/A   Unknown
10:30 AM 68.0 °F 46.4 °F 46% 30.06 in 6.2 mi SSE 23.0 mph - N/A   Unknown
11:00 AM 68.0 °F 46.4 °F 46% 30.04 in 6.2 mi SSE 21.9 mph - N/A   Unknown
11:30 AM 69.8 °F 50.0 °F 49% 30.04 in 6.2 mi SSE 20.7 mph - N/A   Unknown
12:00 PM 69 °F 46 °F 33% 30.01 in - SE 21.9 mph - -  
12:00 PM 69.8 °F 46.4 °F 43% 30.01 in 6.2 mi SE 21.9 mph - N/A   Unknown
12:30 PM 69.8 °F 46.4 °F 43% 30.01 in 6.2 mi SSE 20.7 mph - N/A   Unknown
1:00 PM 71.6 °F 48.2 °F 43% 29.98 in 6.2 mi SE 18.4 mph - N/A   Unknown
1:30 PM 69.8 °F 48.2 °F 46% 29.98 in 6.2 mi SE 15.0 mph - N/A   Unknown
2:00 PM 69.8 °F 50.0 °F 49% 29.95 in 6.2 mi SE 15.0 mph - N/A   Unknown
2:30 PM 69.8 °F 48.2 °F 46% 29.95 in 6.2 mi ESE 12.7 mph - N/A   Unknown
3:00 PM 69 °F 49 °F 38% 29.94 in - East 13.8 mph - -  
3:00 PM 69.8 °F 48.2 °F 46% 29.95 in 6.2 mi East 13.8 mph - N/A   Unknown
3:30 PM 68.0 °F 48.2 °F 49% 29.95 in 6.2 mi East 13.8 mph - N/A   Unknown
4:00 PM 68.0 °F 51.8 °F 56% 29.95 in 6.2 mi East 15.0 mph - N/A   Unknown
4:30 PM 66.2 °F 51.8 °F 60% 29.95 in 6.2 mi East 17.3 mph - N/A   Unknown
5:00 PM 68.0 °F 50.0 °F 52% 29.95 in 6.2 mi East 16.1 mph - N/A   Unknown
5:30 PM 66.2 °F 51.8 °F 60% 29.95 in 6.2 mi East 13.8 mph - N/A   Unknown
6:00 PM 67 °F 52 °F 49% 29.97 in - East 13.8 mph - -  
6:00 PM 66.2 °F 51.8 °F 60% 29.95 in 6.2 mi East 13.8 mph - N/A   Unknown
6:30 PM 66.2 °F 53.6 °F 64% 29.98 in 6.2 mi East 15.0 mph - N/A   Unknown
7:00 PM 66.2 °F 53.6 °F 64% 29.98 in 6.2 mi ESE 11.5 mph - N/A   Unknown
7:30 PM 66.2 °F 53.6 °F 64% 30.01 in 6.2 mi ESE 9.2 mph - N/A   Unknown
8:00 PM 66.2 °F 53.6 °F 64% 30.01 in 6.2 mi East 5.8 mph - N/A   Unknown
8:30 PM 66.2 °F 55.4 °F 68% 30.01 in 6.2 mi South 2.3 mph - N/A   Unknown
9:00 PM 65 °F 55 °F 61% 30.02 in - East 2.3 mph - -  
9:00 PM 64.4 °F 55.4 °F 73% 30.01 in 6.2 mi East 2.3 mph - N/A   Unknown
9:30 PM 64.4 °F 53.6 °F 68% 30.01 in 6.2 mi SE 2.3 mph - N/A   Unknown
10:00 PM 64.4 °F 55.4 °F 73% 30.01 in 6.2 mi South 3.5 mph - N/A   Unknown
10:30 PM 64.4 °F 57.2 °F 77% 30.01 in 6.2 mi Calm Calm - N/A   Unknown
11:00 PM 62.6 °F 57.2 °F 82% 30.01 in - NW 5.8 mph - N/A   Unknown
11:30 PM 62.6 °F 57.2 °F 82% 30.01 in 6.2 mi NW 5.8 mph - N/A   Unknown